N1PRS-9 Weather Reports


Display with metric or nautical units.
time (UTC)temp
F
wind
direction
speed
MPH
gust
MPH
rain 1hr
in
rain 24hr
in
rain mn
in
humidity
%
barometer
mb
20260502152033 54 0 0.0 3.0 0.00 0.04 0.04 77 1012.0
20260502151549 54 180 0.0 3.0 0.00 0.04 0.04 75 1011.9
20260502151032 54 178 0.0 2.0 0.00 0.04 0.04 76 1012.0
20260502150532 54 211 0.0 2.0 0.00 0.04 0.04 77 1012.1
20260502130532 50 355 1.0 3.0 0.01 0.04 0.04 90 1012.0
20260502130106 50 0 1.0 3.0 0.01 0.04 0.04 93 1011.9
20260502123533 48 33 1.0 3.0 0.02 0.04 0.04 94 1012.2
20260502123112 48 33 0.0 3.0 0.02 0.04 0.04 94 1012.1
20260502122531 48 0 0.0 2.0 0.02 0.04 0.04 95 1012.3
20260502122034 48 0 0.0 1.0 0.02 0.03 0.03 95 1012.4
20260502121545 48 0 0.0 1.0 0.02 0.03 0.03 95 1012.7
20260502121032 48 0 0.0 0.0 0.02 0.03 0.03 95 1012.6
20260502120532 47 0 0.0 0.0 0.02 0.03 0.03 95 1012.6
20260502115532 47 0 0.0 0.0 0.02 0.03 0.03 94 1012.9
20260502115032 47 0 0.0 0.0 0.01 0.02 0.02 94 1012.8
20260502114553 47 0 0.0 0.0 0.01 0.02 0.02 94 1012.9
20260502114032 47 0 0.0 1.0 0.01 0.02 0.02 94 1012.9
20260502113532 47 0 0.0 1.0 0.01 0.02 0.02 94 1012.9
20260502113046 47 0 0.0 1.0 0.01 0.02 0.02 94 1012.8
20260502112529 47 0 0.0 1.0 0.01 0.02 0.02 94 1012.8
20260502112031 47 0 0.0 1.0 0.00 0.01 0.01 94 1012.9
20260502111545 47 0 0.0 0.0 0.00 0.01 0.01 94 1013.1
20260502111031 47 0 0.0 2.0 0.00 0.01 0.01 94 1012.7
20260502110532 47 0 0.0 2.0 0.00 0.01 0.01 94 1012.8
20260502110050 47 229 0.0 2.0 0.00 0.01 0.01 94 1012.8
20260502105531 47 0 0.0 3.0 0.00 0.01 0.01 93 1012.8
20260502105032 47 0 0.0 3.0 0.00 0.01 0.01 93 1012.8
20260502104545 47 275 1.0 2.0 0.00 0.01 0.01 93 1012.6
20260502104031 47 0 0.0 0.0 0.01 0.01 0.01 93 1012.3
20260502103532 47 0 0.0 0.0 0.01 0.01 0.01 92 1012.1
20260502103040 47 0 0.0 0.0 0.01 0.01 0.01 92 1012.0
20260502102535 47 0 0.0 0.0 0.01 0.01 0.01 92 1012.0
20260502102037 47 0 0.0 0.0 0.01 0.01 0.01 92 1012.0
20260502101554 47 0 0.0 2.0 0.01 0.01 0.01 92 1012.0
20260502101031 47 0 0.0 2.0 0.01 0.01 0.01 91 1011.9
20260502100531 47 0 0.0 0.0 0.01 0.01 0.01 91 1011.9
20260502091028 48 0 0.0 1.0 0.00 0.00 0.00 86 1011.7
20260502090531 48 184 0.0 1.0 0.00 0.00 0.00 86 1011.8
20260502071032 49 0 0.0 1.0 0.00 0.00 0.00 81 1011.6
20260502070534 49 0 0.0 1.0 0.00 0.00 0.00 80 1011.8
20260502070044 49 0 0.0 1.0 0.00 0.00 0.00 79 1011.7
20260502065532 49 0 0.0 0.0 0.00 0.00 0.00 79 1011.8
20260502065033 49 0 0.0 1.0 0.00 0.00 0.00 79 1011.9
20260502064551 49 0 0.0 1.0 0.00 0.00 0.00 79 1011.9
20260502064031 49 0 0.0 0.0 0.00 0.00 0.00 79 1011.8
20260502063536 49 0 0.0 1.0 0.00 0.00 0.00 78 1011.8
20260502063056 49 0 0.0 1.0 0.00 0.00 0.00 78 1011.8
20260502062531 49 208 0.0 0.0 0.00 0.00 0.00 77 1011.7
20260502062030 50 0 0.0 0.0 0.00 0.00 0.00 77 1011.9
20260502061541 50 0 0.0 0.0 0.00 0.00 0.00 77 1011.9
20260502061028 50 0 0.0 2.0 0.00 0.00 0.00 76 1012.0
20260502060533 50 0 0.0 2.0 0.00 0.00 0.00 76 1012.1
20260502060043 50 211 0.0 1.0 0.00 0.00 0.00 76 1012.0
20260502055531 50 0 0.0 1.0 0.00 0.00 0.00 75 1011.8
20260502055032 50 0 0.0 1.0 0.00 0.00 0.00 75 1011.8
20260502054545 50 0 0.0 1.0 0.00 0.00 0.00 74 1011.8
20260502054031 50 0 0.0 1.0 0.00 0.00 0.00 74 1011.7
20260502053532 50 0 0.0 2.0 0.00 0.00 0.00 74 1011.7
20260502053045 51 0 0.0 2.0 0.00 0.00 0.00 74 1012.0
20260502052531 51 0 0.0 3.0 0.00 0.00 0.00 73 1011.9
20260502052032 51 0 0.0 4.0 0.00 0.00 0.00 73 1011.8
20260502051544 51 0 0.0 4.0 0.00 0.00 0.00 73 1011.9
20260502051031 51 0 0.0 4.0 0.00 0.00 0.00 72 1011.9
20260502050531 51 0 0.0 4.0 0.00 0.00 0.00 72 1012.0
20260502050043 51 0 0.0 3.0 0.00 0.00 0.00 72 1012.1
20260502045531 51 0 0.0 3.0 0.00 0.00 0.00 72 1012.1
20260502045033 51 0 0.0 3.0 0.00 0.00 0.00 73 1012.1
20260502044544 51 0 0.0 3.0 0.00 0.00 0.00 72 1012.0
20260502044032 51 0 0.0 3.0 0.00 0.00 0.00 72 1012.1
20260502043533 51 180 0.0 2.0 0.00 0.00 0.00 72 1012.2
20260502043054 51 0 0.0 2.0 0.00 0.00 0.00 72 1012.0
20260502042531 51 0 0.0 2.0 0.00 0.00 0.00 72 1012.0
20260502042035 51 0 0.0 4.0 0.00 0.00 0.00 72 1012.0
20260502041540 51 178 0.0 4.0 0.00 0.00 0.00 73 1012.0
20260502041030 51 0 0.0 1.0 0.00 0.00 0.00 72 1012.0
20260502040531 51 0 0.0 2.0 0.00 0.00 0.00 72 1012.0
20260502040048 51 0 0.0 2.0 0.00 0.00 0.00 72 1012.0
20260502035531 51 184 0.0 2.0 0.00 0.00 0.00 72 1012.0
20260502035031 51 176 0.0 2.0 0.00 0.00 0.00 72 1012.1
20260502034544 51 0 0.0 2.0 0.00 0.00 0.00 72 1012.1
20260502034052 51 177 0.0 2.0 0.00 0.00 0.00 72 1012.0
20260502033535 51 0 0.0 2.0 0.00 0.00 0.00 72 1012.2
20260502033049 51 0 0.0 2.0 0.00 0.00 0.00 72 1012.3
20260502032533 51 0 0.0 3.0 0.00 0.00 0.00 72 1012.3
20260502032033 51 0 0.0 4.0 0.00 0.00 0.00 73 1012.3
20260502031544 51 0 0.0 4.0 0.00 0.00 0.00 72 1012.2
20260502031033 51 0 0.0 2.0 0.00 0.00 0.00 72 1012.2
20260502030533 51 0 0.0 2.0 0.00 0.00 0.00 72 1012.2
20260502030043 51 0 0.0 2.0 0.00 0.00 0.00 72 1012.2
20260502025532 51 169 0.0 2.0 0.00 0.00 0.00 71 1012.2
20260502025036 51 0 0.0 2.0 0.00 0.00 0.00 71 1012.2
20260502024600 51 0 0.0 2.0 0.00 0.00 0.00 71 1012.2
20260502024033 52 0 0.0 2.0 0.00 0.00 0.00 71 1012.2
20260502023532 52 0 0.0 2.0 0.00 0.00 0.00 70 1012.2
20260502023050 52 0 0.0 2.0 0.00 0.00 0.00 70 1012.2
20260502022533 52 0 0.0 2.0 0.00 0.00 0.00 70 1012.2
20260502022036 52 0 0.0 2.0 0.00 0.00 0.00 69 1012.3
20260502021542 52 174 0.0 2.0 0.00 0.00 0.00 69 1012.2
20260502021033 52 0 0.0 2.0 0.00 0.00 0.00 68 1012.3
20260502020534 52 0 0.0 3.0 0.00 0.00 0.00 68 1012.2
20260502020045 52 174 0.0 3.0 0.00 0.00 0.00 67 1012.2
20260502015533 52 0 0.0 3.0 0.00 0.00 0.00 67 1012.2
20260502015033 52 0 0.0 3.0 0.00 0.00 0.00 66 1012.3
20260502014548 53 0 0.0 3.0 0.00 0.00 0.00 66 1012.4
20260502014032 53 181 0.0 2.0 0.00 0.00 0.00 65 1012.2
20260502013532 53 188 0.0 4.0 0.00 0.00 0.00 64 1012.1
20260502013043 53 0 0.0 4.0 0.00 0.00 0.00 64 1012.1
20260502012532 53 173 0.0 3.0 0.00 0.00 0.00 63 1012.1
20260502012033 54 0 0.0 2.0 0.00 0.00 0.00 62 1012.0
20260502011543 54 0 0.0 2.0 0.00 0.00 0.00 62 1012.0
20260502011033 54 173 0.0 4.0 0.00 0.00 0.00 61 1012.0
20260502010531 54 0 0.0 4.0 0.00 0.00 0.00 60 1011.9
20260502010052 54 185 1.0 4.0 0.00 0.00 0.00 59 1011.9
20260502005532 54 0 0.0 4.0 0.00 0.00 0.00 58 1011.8
20260502005036 55 169 0.0 4.0 0.00 0.00 0.00 57 1011.8
20260502004600 55 0 0.0 4.0 0.00 0.00 0.00 55 1011.7
20260502004032 55 0 0.0 4.0 0.00 0.00 0.00 54 1011.5
20260502003533 55 165 0.0 3.0 0.00 0.00 0.00 53 1011.5
20260502003046 55 0 0.0 3.0 0.00 0.00 0.00 50 1011.4
20260502002532 56 0 0.0 1.0 0.00 0.00 0.00 49 1011.3
20260502002033 56 0 0.0 1.0 0.00 0.00 0.00 49 1011.2
20260502001544 56 0 0.0 2.0 0.00 0.00 0.00 49 1011.2
20260502001035 56 0 0.0 2.0 0.00 0.00 0.00 48 1011.1
20260502000532 56 0 0.0 3.0 0.00 0.00 0.00 48 1011.0
20260502000044 57 0 0.0 3.0 0.00 0.00 0.00 48 1011.0
20260501235536 57 0 0.0 6.0 0.00 0.00 0.00 48 1010.9
20260501235033 57 0 0.0 6.0 0.00 0.00 0.00 48 1010.8
20260501234545 57 180 1.0 6.0 0.00 0.00 0.00 47 1010.8
20260501234033 58 0 0.0 3.0 0.00 0.00 0.00 47 1010.7
20260501233533 58 0 0.0 3.0 0.00 0.00 0.00 47 1010.5
20260501233047 58 179 0.0 0.0 0.00 0.00 0.00 45 1010.4
20260501232533 59 0 0.0 0.0 0.00 0.00 0.00 46 1010.2
20260501232033 59 0 0.0 0.0 0.00 0.00 0.00 44 1010.2
20260501231547 60 0 0.0 0.0 0.00 0.00 0.00 43 1010.2
20260501231033 61 0 0.0 2.0 0.00 0.00 0.00 42 1010.2
20260501230534 61 0 0.0 5.0 0.00 0.00 0.00 42 1010.2
20260501230046 61 0 1.0 6.0 0.00 0.00 0.00 40 1010.2
20260501225532 62 0 1.0 6.0 0.00 0.00 0.00 40 1010.1
20260501225033 62 0 1.0 6.0 0.00 0.00 0.00 40 1010.2
20260501224549 63 257 1.0 6.0 0.00 0.00 0.00 38 1010.1
20260501224032 63 230 2.0 6.0 0.00 0.00 0.00 37 1009.9
20260501223532 63 342 2.0 6.0 0.00 0.00 0.00 39 1009.8
20260501223047 64 244 1.0 7.0 0.00 0.00 0.00 38 1009.8
20260501222533 64 0 2.0 9.0 0.00 0.00 0.00 36 1009.9
20260501222032 64 0 2.0 13.0 0.00 0.00 0.00 38 1010.0
20260501221545 65 213 4.0 13.0 0.00 0.00 0.00 35 1010.0
20260501221033 65 268 2.0 6.0 0.00 0.00 0.00 35 1009.8
20260501220533 66 23 0.0 3.0 0.00 0.00 0.00 36 1009.9
20260501220050 65 0 0.0 5.0 0.00 0.00 0.00 36 1009.9
20260501215533 65 0 1.0 9.0 0.00 0.00 0.00 36 1009.9
20260501215033 65 317 2.0 11.0 0.00 0.00 0.00 36 1010.1
20260501214539 65 250 5.0 11.0 0.00 0.00 0.00 36 1010.0
20260501214032 65 296 4.0 11.0 0.00 0.00 0.00 36 1010.1
20260501213532 64 0 1.0 4.0 0.00 0.00 0.00 36 1010.1
20260501213051 63 302 0.0 6.0 0.00 0.00 0.00 40 1010.1
20260501212532 63 0 0.0 6.0 0.00 0.00 0.00 42 1010.0
20260501212032 63 300 1.0 6.0 0.00 0.00 0.00 37 1010.0
20260501211545 64 327 3.0 7.0 0.00 0.00 0.00 35 1009.9
20260501211034 64 301 3.0 12.0 0.00 0.00 0.00 37 1010.0
20260501210533 64 306 4.0 12.0 0.00 0.00 0.00 36 1010.0
20260501210046 64 265 5.0 12.0 0.00 0.00 0.00 36 1010.0
20260501205534 65 17 5.0 12.0 0.00 0.00 0.00 35 1010.0
20260501205030 65 0 2.0 10.0 0.00 0.00 0.00 37 1009.9
20260501204545 65 218 3.0 10.0 0.00 0.00 0.00 38 1010.0
20260501204035 65 256 1.0 11.0 0.00 0.00 0.00 38 1010.0
20260501203533 65 257 3.0 11.0 0.00 0.00 0.00 36 1009.9
20260501203048 65 317 3.0 9.0 0.00 0.00 0.00 36 1009.8
20260501202533 65 235 2.0 7.0 0.00 0.00 0.00 38 1009.9
20260501202036 64 246 2.0 7.0 0.00 0.00 0.00 38 1010.0
20260501201546 63 296 0.0 9.0 0.00 0.00 0.00 38 1009.8
20260501201032 63 243 4.0 9.0 0.00 0.00 0.00 37 1010.0
20260501200535 63 327 2.0 9.0 0.00 0.00 0.00 37 1010.1
20260501200045 63 40 3.0 9.0 0.00 0.00 0.00 37 1009.9
20260501195532 63 269 3.0 12.0 0.00 0.00 0.00 38 1010.0
20260501195032 63 84 4.0 12.0 0.00 0.00 0.00 40 1009.9
20260501194545 63 335 5.0 12.0 0.00 0.00 0.00 37 1010.0
20260501194033 62 325 2.0 12.0 0.00 0.00 0.00 40 1010.0
20260501193532 63 83 6.0 12.0 0.00 0.00 0.00 37 1010.0
20260501193100 63 259 4.0 13.0 0.00 0.00 0.00 36 1010.0
20260501192531 63 290 4.0 13.0 0.00 0.00 0.00 39 1010.1
20260501192032 63 48 3.0 12.0 0.00 0.00 0.00 39 1010.1
20260501191545 63 271 5.0 12.0 0.00 0.00 0.00 38 1010.3
20260501191033 63 296 3.0 10.0 0.00 0.00 0.00 38 1010.5
20260501190535 63 327 2.0 15.0 0.00 0.00 0.00 39 1010.5
20260501190113 63 275 5.0 15.0 0.00 0.00 0.00 39 1010.5
20260501185533 62 236 4.0 12.0 0.00 0.00 0.00 38 1010.6
20260501185035 62 311 4.0 12.0 0.00 0.00 0.00 38 1010.6
20260501184542 62 288 5.0 12.0 0.00 0.00 0.00 38 1010.7
20260501184033 61 248 4.0 13.0 0.00 0.00 0.00 39 1010.6
20260501183533 61 39 3.0 13.0 0.00 0.00 0.00 38 1010.7
20260501183117 61 308 5.0 13.0 0.00 0.00 0.00 38 1010.7
20260501182535 61 348 3.0 10.0 0.00 0.00 0.00 37 1010.7
20260501182033 61 275 5.0 11.0 0.00 0.00 0.00 37 1010.7
20260501181545 61 267 3.0 18.0 0.00 0.00 0.00 39 1010.7
20260501181032 61 327 5.0 18.0 0.00 0.00 0.00 37 1010.8
20260501180532 61 280 5.0 13.0 0.00 0.00 0.00 38 1010.8
20260501180106 61 347 4.0 12.0 0.00 0.00 0.00 37 1010.7
20260501175536 61 270 4.0 14.0 0.00 0.00 0.00 37 1010.6
20260501175034 61 252 5.0 14.0 0.00 0.00 0.00 38 1010.7
20260501174547 60 34 4.0 13.0 0.00 0.00 0.00 40 1010.8
20260501174032 60 284 6.0 13.0 0.00 0.00 0.00 42 1010.7
20260501173532 59 289 2.0 12.0 0.00 0.00 0.00 42 1010.7
20260501173046 59 277 3.0 10.0 0.00 0.00 0.00 44 1010.8
20260501172534 58 235 4.0 9.0 0.00 0.00 0.00 44 1010.8
20260501172033 58 224 4.0 9.0 0.00 0.00 0.00 44 1010.8
20260501171543 57 26 1.0 9.0 0.00 0.00 0.00 44 1011.1
20260501171033 57 352 2.0 9.0 0.00 0.00 0.00 44 1011.0
20260501170536 58 306 4.0 10.0 0.00 0.00 0.00 46 1011.0
20260501170052 58 292 4.0 10.0 0.00 0.00 0.00 44 1011.0
20260501165533 58 19 4.0 10.0 0.00 0.00 0.00 46 1011.1
20260501165033 57 274 1.0 8.0 0.00 0.00 0.00 47 1011.0
20260501164544 57 329 3.0 8.0 0.00 0.00 0.00 49 1011.3
20260501164032 57 347 3.0 10.0 0.00 0.00 0.00 46 1011.3
20260501163533 57 305 2.0 10.0 0.00 0.00 0.00 47 1011.3
20260501163051 57 165 3.0 10.0 0.00 0.00 0.00 49 1011.4
20260501162532 57 266 3.0 14.0 0.00 0.00 0.00 51 1011.4
20260501162033 57 261 3.0 14.0 0.00 0.00 0.00 47 1011.4
20260501161544 56 340 8.0 14.0 0.00 0.00 0.00 49 1011.5
20260501161034 56 263 2.0 8.0 0.00 0.00 0.00 51 1011.4
20260501160533 56 321 2.0 8.0 0.00 0.00 0.00 51 1011.6
20260501160045 55 260 3.0 10.0 0.00 0.00 0.00 53 1011.4
20260501155533 55 19 2.0 10.0 0.00 0.00 0.00 52 1011.6
20260501155033 54 46 2.0 8.0 0.00 0.00 0.00 54 1011.5
20260501154542 54 284 3.0 9.0 0.00 0.00 0.00 52 1011.6
20260501154032 54 352 2.0 10.0 0.00 0.00 0.00 53 1011.7
20260501153533 54 351 1.0 10.0 0.00 0.00 0.00 55 1011.7
20260501153044 54 352 3.0 11.0 0.00 0.00 0.00 54 1011.6